Regional Weather Roundup
Issued by NWS Upton, NY

Current Version | Previous Version | Text Only | Print | Product List | Glossary On
Versions: 1 2 3 4 5 6 7 8 9 10 11 12 13 14 15 16 17 18 19 20 21 22 23 24 25 26 27 28 29 30 31 32 33 34 35 36 37 38 39 40 41 42 43 44 45 46 47 48 49 50
000
ASUS41 KOKX 220905
RWROKX

REGIONAL WEATHER ROUNDUP
NATIONAL WEATHER SERVICE NEW YORK NY
500 AM EDT FRI AUG 22 2014

NOTE: "FAIR" INDICATES FEW OR NO CLOUDS BELOW 12,000 FEET WITH NO
SIGNIFICANT WEATHER AND/OR OBSTRUCTIONS TO VISIBILITY.

NYZ071-072-176-178-NJZ106-104-221000-
NEW YORK CITY METRO AREA


CITY           SKY/WX    TMP DP  RH WIND       PRES   REMARKS
CENTRAL PARK   CLOUDY    67  64  90 VRB3      30.03F FOG
LAGUARDIA APRT CLOUDY    68  65  90 E5        30.00F
KENNEDY INTL   CLOUDY    68  65  90 E6        30.01F
NEWARK/LIBERTY CLOUDY    68  64  87 CALM      30.01S
BRNX BOT. GARD   N/A     66  64  94 CALM      30.04R
TETERBORO      MOCLDY    67  64  90 NW5       30.00S
$$

NYZ177-179-078>081-221000-
LONG ISLAND NEW YORK

CITY           SKY/WX    TMP DP  RH WIND       PRES   REMARKS
FARMINGDALE    CLOUDY    66  65  96 CALM      30.01F
ISLIP          CLOUDY    67  64  90 E6        30.01S
SHIRLEY        CLOUDY    64  62  93 VRB3      30.03F
WESTHAMPTON    LGT RAIN  65  62  90 CALM      30.05F
MONTAUK POINT    N/A     67  62  84 NE3       30.05F
$$

NYZ052-065-067-221000-
HUDSON VALLEY

CITY           SKY/WX    TMP DP  RH WIND       PRES   REMARKS
WHITE PLAINS   CLOUDY    66  64  93 NE3       30.02S
NEWBURGH       CLOUDY    64  64 100 CALM      30.04S
MONTGOMERY     MOCLDY    63  62  97 CALM      30.02S FOG
POUGHKEEPSIE   CLOUDY    67  63  87 SE3       30.01S
ALBANY         CLOUDY    66  64  93 SE5       30.01F
$$

NJZ001-105-106-008-010-013-015-019>022-104-221000-
NEW JERSEY

CITY           SKY/WX    TMP DP  RH WIND       PRES   REMARKS
NEWARK/LIBERTY CLOUDY    68  64  87 CALM      30.01S
TETERBORO      MOCLDY    67  64  90 NW5       30.00S
CALDWELL       CLOUDY    65  63  93 CALM      30.02S
MORRISTOWN       N/A     64  63  94 CALM      30.02R FOG
SOMERVILLE     MOCLDY    65  63  93 CALM      29.99S
LINDEN         FAIR      71  67  89 CALM      30.01F
SUSSEX         CLOUDY    67  64  90 NE3         N/A
ANDOVER          N/A     65  64  97 CALM      30.02S
TRENTON        LGT RAIN  66  64  93 E6        29.99S
MILLVILLE      LGT RAIN  69  66  90 E10       29.98R
ATLANTIC CITY  HVY RAIN  67  67 100 NE13      29.98S FOG
WRIGHTSTOWN    LGT RAIN  65  65 100 E6        29.95F
TOMS RIVER     CLOUDY    66  64  94 NE6       29.98F
BELMAR         CLOUDY    66  61  82 CALM      30.00F
$$

PAZ047>061-062-071-221000-
EASTERN PENNSYLVANIA

CITY           SKY/WX    TMP DP  RH WIND       PRES   REMARKS
PHILADELPHIA   LGT RAIN  69  66  90 E5        29.97F
ALLENTOWN      CLOUDY    67  64  90 NE6       30.00S
SCRANTON       MOCLDY    67  64  90 E5        30.00S
$$

CTZ002-004>006-009-010-012-RIZ004-006-007-MAZ004-011-015-221000-
SOUTHERN NEW ENGLAND
 IN CT

CITY           SKY/WX    TMP DP  RH WIND       PRES   REMARKS
BRADLEY INTL   CLOUDY    66  61  84 E5        30.05S
HARTFORD       CLOUDY    66  61  84 CALM      30.05S
DANBURY        CLOUDY    66  62  87 CALM      30.05S
WTRBRY/OXFORD  CLOUDY    64  57  77 E7        30.06S
BRIDGEPORT     CLOUDY    68  63  84 E7        30.03S
MERIDEN        CLOUDY    64  62  93 CALM      30.05S
NEW HAVEN      CLOUDY    67  62  84 E5        30.04S
CHESTER        FAIR      63  57  82 E3        30.06F
GROTON         CLOUDY    65  63  93 N5        30.04F
WILLIMANTIC    CLOUDY    66  61  84 NE6       30.06F

 IN RI

CITY           SKY/WX    TMP DP  RH WIND       PRES   REMARKS
PROVIDENCE     CLOUDY    64  61  90 NE7       30.07S
BLOCK ISLAND   CLOUDY    66  61  82 NE7       30.04F
WESTERLY       LGT RAIN  65  62  90 N3        30.06S

 IN MA

CITY           SKY/WX    TMP DP  RH WIND       PRES   REMARKS
BOSTON         CLOUDY    64  62  93 N8        30.07S
WORCESTER      FOG       59  59 100 E6        30.10S VSB 1/2
WESTFIELD      CLOUDY    64  62  93 N5        30.06S
PROVINCETOWN   MOCLDY    64  61  88 MISG      30.06R
NANTUCKET      FOG       60  59  96 NE7       30.04S VSB 1/4
$$

ANZ330-335-338-340-345-350-353-355-221000-
COASTAL MARINE OBSERVATIONS


STATION/POSITION TIME  SKY/WX   TEMP    WIND        PRES    VSBY  WAVE
                                AIR SEA DIR/SP/G                  HT/PER
                 (UTC)          (F)     (DEG/KT/KT) (MB)    (MI)  (FT/S)
NY HARB ENTRANCE NOT AVBL
4S FIRE IS       NOT AVBL
23SW MTP         0800            68 69              1016.8          3/ 7
HUDSON CANYON    0900            71 73   30/ 10/ 12 1015.7          3/ 7
EXECUTION ROCKS  0900            69 73  130/  8/ 10   N/A
WESTERN LI SOUND 0900            70     110/  8/  8   N/A           1
CENTRAL LI SOUND 0800            69 73  120/  8/ 12   N/A           0
EASTERN LI SOUND 0800            68 69   70/  6/  6   N/A
ROBBINS REEF     0900            68     120/  6/  7   N/A
$$


>>>>>>>>>>>>>>>>>>>>>>>>>>>> KEY <<<<<<<<<<<<<<<<<<<<<<<<<<<
>                                                          <
>     SKY/WX - SKY CONDITION/PRESENT WEATHER               <
>     TMP    - TEMPERATURE IN FAHRENHEIT                   <
>     DP     - DEWPOINT IN FAHRENHEIT                      <
>     RH     - RELATIVE HUMIDITY IN PERCENT                <
>     WIND   - DIRECTION AND SPEED IN MPH                  <
>     PRES   - MEAN SEA LEVEL PRESSURE IN INCHES OF HG     <
>     WCI    - WIND CHILL INDEX                            <
>     VSB    - VISIBILITY IN MILES                         <
>     HX     - HEAT INDEX                                  <
>     TC     - TEMPERATURE IN CELSIUS                      <
>     VRB    - VARIABLE WIND DIRECTION                     <
>                                                          <
>>>>>>>>>>>>>>>>>>>>>>>>>>>> KEY <<<<<<<<<<<<<<<<<<<<<<<<<<<




USA.gov is the U.S. government's official web portal to all federal, state and local government web resources and services.